Total_Precipitation_Accumulation
3.18 3.29 3.33 3.47 3.25 3.17 3.16 2.84 2.46 2.50 2.57 2.49 2.20 2.10 2.12 2.08 2.22 2.53 2.83 2.69 2.56 2.74 3.10 3.39 3.63 3.68 3.64 3.63 3.60 3.56 3.46 3.37 3.27 3.04 2.78 2.54 2.37 2.31 2.34 2.46 2.47 2.40 2.34
3.52 3.58 3.65 3.67 3.45 3.42 3.41 3.10 2.86 2.99 2.91 2.78 2.46 2.34 2.33 2.34 2.42 2.62 2.87 2.87 2.47 2.29 2.61 3.15 3.55 3.84 3.92 3.92 3.74 3.55 3.50 3.44 3.41 3.21 2.97 2.72 2.52 2.41 2.34 2.35 2.43 2.41 2.32
3.84 3.88 3.96 3.83 3.61 3.56 3.59 3.49 3.34 3.30 3.11 2.83 2.68 2.67 2.66 2.51 2.46 2.69 2.89 2.91 2.68 2.46 2.54 2.77 3.08 3.47 3.93 4.14 4.04 3.85 3.68 3.60 3.53 3.36 3.17 2.96 2.73 2.54 2.40 2.35 2.33 2.33 2.29
3.75 4.04 4.07 3.85 3.65 3.59 3.72 3.87 3.71 3.57 3.45 3.30 3.05 2.78 2.69 2.67 2.54 2.56 2.57 2.65 2.82 2.68 2.68 2.63 2.78 3.07 3.50 3.86 4.16 4.22 4.04 3.85 3.69 3.52 3.38 3.21 3.02 2.80 2.59 2.52 2.43 2.33 2.29
3.86 4.14 4.23 4.19 3.86 3.83 3.97 3.83 4.01 3.83 3.73 3.46 3.02 2.87 2.62 2.44 2.45 2.44 2.54 2.48 2.52 2.58 2.60 2.58 2.70 2.82 3.11 3.51 3.83 4.07 4.10 4.00 3.75 3.49 3.42 3.37 3.19 3.00 2.81 2.67 2.54 2.38 2.29
3.97 4.22 4.25 4.31 4.14 4.16 4.37 4.35 4.37 4.12 3.74 3.48 3.04 2.85 2.57 2.30 2.19 2.28 2.26 2.27 2.22 2.20 2.28 2.34 2.54 2.52 2.72 3.04 3.47 3.82 4.24 4.32 4.06 3.78 3.62 3.52 3.28 2.99 2.79 2.73 2.68 2.54 2.46
4.59 4.87 4.69 4.64 4.39 4.29 4.34 4.32 4.18 4.08 3.88 3.75 3.64 3.28 2.75 2.32 2.14 2.02 2.02 2.08 2.07 2.00 2.08 2.24 2.33 2.31 2.38 2.53 2.73 3.14 3.86 4.24 4.17 3.98 3.90 3.77 3.50 3.16 2.93 2.88 2.87 2.77 2.64
5.22 5.20 5.14 4.79 4.55 4.41 4.25 4.15 4.05 3.96 3.72 3.65 3.76 3.76 3.25 2.85 2.34 1.87 1.98 1.99 2.00 2.04 2.02 1.92 1.99 1.97 1.93 2.16 2.26 2.60 3.14 3.48 3.83 4.04 4.06 3.76 3.61 3.41 3.20 3.05 3.01 2.92 2.81
5.04 4.98 4.91 4.71 4.54 4.30 4.15 4.09 4.01 3.95 3.76 3.65 3.69 3.94 3.74 3.16 2.58 2.14 1.94 1.94 2.00 2.02 1.96 1.89 1.85 1.85 1.83 2.01 2.10 2.30 2.63 2.78 3.12 3.50 3.79 3.55 3.45 3.52 3.44 3.33 3.26 3.22 3.12
4.73 4.58 4.66 4.61 4.46 4.18 4.02 3.68 3.66 3.78 3.93 3.72 3.55 3.31 3.17 2.94 2.86 2.65 2.32 2.12 2.03 1.98 1.91 1.83 1.76 1.85 1.90 2.07 2.25 2.26 2.34 2.38 2.55 2.84 3.03 3.03 3.06 3.22 3.38 3.27 3.27 3.36 3.37
4.38 4.12 4.17 4.12 3.94 3.73 3.58 3.37 3.35 3.41 3.51 3.48 3.43 3.28 3.15 2.94 2.72 2.69 2.57 2.31 2.18 1.99 1.90 1.90 1.88 1.90 1.94 2.01 2.14 2.18 2.21 2.15 2.22 2.35 2.43 2.53 2.66 2.89 3.09 3.19 3.27 3.41 3.54
4.16 3.83 3.51 3.48 3.45 3.29 3.10 3.02 3.01 3.00 3.05 3.11 3.16 3.06 2.95 2.87 2.77 2.77 2.68 2.47 2.35 2.15 2.03 2.03 1.98 1.91 1.92 1.89 1.81 2.03 1.98 1.97 1.99 2.06 2.11 2.14 2.23 2.43 2.64 2.86 3.13 3.34 3.46
3.65 3.37 3.12 3.02 2.97 2.92 2.80 2.71 2.71 2.60 2.53 2.61 2.60 2.69 2.69 2.58 2.48 2.59 2.72 2.60 2.36 2.22 2.14 2.03 1.87 1.82 1.77 1.84 1.84 1.85 1.71 1.73 1.68 1.65 1.71 1.82 1.97 2.09 2.20 2.37 2.59 2.86 3.06
3.11 2.86 2.74 2.53 2.34 2.23 2.18 2.29 2.34 2.29 2.25 2.22 2.13 2.38 2.45 2.34 2.32 2.37 2.46 2.69 2.66 2.41 2.30 2.10 1.91 1.80 1.76 1.77 1.80 1.66 1.53 1.52 1.45 1.45 1.49 1.55 1.69 1.88 1.98 2.00 2.00 2.07 2.24
2.46 2.37 2.27 2.20 2.11 1.99 1.95 1.96 2.00 2.08 2.08 2.00 2.01 2.14 2.13 2.06 2.09 2.12 2.23 2.44 2.75 2.69 2.48 2.17 2.04 1.90 1.87 1.87 1.94 1.64 1.59 1.53 1.46 1.48 1.50 1.54 1.62 1.79 1.87 1.88 1.77 1.65 1.63
2.15 2.03 1.96 1.90 1.90 1.86 1.83 1.91 1.89 1.92 1.99 1.89 1.86 1.86 1.83 1.78 1.89 1.88 1.99 2.12 2.33 2.59 2.49 2.05 1.89 1.86 1.87 1.77 2.03 1.80 1.69 1.62 1.53 1.68 1.79 1.73 1.72 1.89 2.02 2.07 1.92 1.74 1.66
1.92 1.81 1.73 1.68 1.64 1.67 1.67 1.72 1.67 1.62 1.60 1.57 1.48 1.47 1.52 1.61 1.76 1.75 1.77 1.90 2.13 2.38 2.51 2.08 1.85 1.93 2.07 2.01 2.07 1.97 1.80 1.75 1.70 2.04 2.19 2.37 2.13 2.04 2.11 2.14 2.10 1.87 1.69
1.72 1.69 1.57 1.51 1.47 1.42 1.39 1.37 1.38 1.39 1.39 1.37 1.38 1.45 1.44 1.51 1.65 1.69 1.74 1.79 1.96 2.23 2.42 2.36 2.11 2.10 2.10 2.06 2.17 2.15 1.89 1.73 1.72 2.16 2.37 2.64 2.56 2.30 2.30 2.19 2.10 1.92 1.75
1.58 1.52 1.49 1.46 1.39 1.41 1.32 1.22 1.22 1.29 1.26 1.24 1.31 1.38 1.44 1.69 1.71 1.70 1.77 1.81 1.89 1.99 2.33 2.40 2.18 2.19 2.19 2.19 2.39 2.22 2.02 2.01 1.68 1.95 2.35 2.66 2.73 2.70 2.76 2.65 2.41 2.08 1.83
1.53 1.48 1.49 1.42 1.36 1.35 1.32 1.26 1.22 1.27 1.29 1.26 1.28 1.36 1.45 1.65 1.76 1.86 1.79 1.89 1.96 2.09 2.26 2.39 2.33 2.31 2.34 2.37 2.42 2.36 2.21 2.06 1.84 1.76 2.20 2.61 2.88 2.92 3.05 3.15 2.91 2.49 2.10
1.45 1.45 1.45 1.37 1.37 1.35 1.27 1.27 1.26 1.26 1.36 1.37 1.31 1.30 1.32 1.45 1.58 1.58 1.45 1.59 1.81 2.07 2.14 2.33 2.38 2.41 2.36 2.43 2.30 2.08 2.04 2.01 1.84 1.72 1.93 2.25 2.90 3.20 3.22 3.31 3.23 2.80 2.35
1.50 1.49 1.46 1.42 1.37 1.11 1.19 1.21 1.20 1.28 1.35 1.36 1.35 1.33 1.26 1.21 1.16 1.14 1.18 1.25 1.46 1.77 2.14 2.40 2.34 2.33 2.22 2.13 2.15 2.10 2.13 2.15 2.07 1.73 1.73 1.96 2.49 3.24 3.42 3.33 3.30 2.77 2.27
1.49 1.43 1.40 1.41 1.35 1.22 1.21 1.13 1.14 1.27 1.39 1.47 1.53 1.51 1.20 1.01 1.12 1.12 1.17 1.22 1.34 1.52 1.83 2.25 2.35 2.15 2.13 2.09 2.19 2.20 2.26 2.26 2.11 1.80 1.88 2.08 2.39 3.03 3.14 3.09 3.06 2.46 2.06
1.47 1.46 1.42 1.39 1.38 1.25 1.20 1.10 1.14 1.20 1.36 1.40 1.41 1.44 1.42 1.29 1.18 1.26 1.32 1.38 1.47 1.58 1.68 1.76 2.10 1.98 1.80 1.89 2.05 2.11 2.28 2.30 2.16 1.93 1.99 2.25 2.41 2.84 2.76 2.81 2.73 2.28 1.96
1.46 1.40 1.39 1.42 1.48 1.40 1.25 1.12 1.06 1.07 1.21 1.26 1.23 1.22 1.19 1.22 1.29 1.47 1.59 1.78 1.86 1.94 1.79 1.92 2.07 2.00 1.88 1.86 1.83 2.01 2.35 2.43 2.25 2.02 2.02 2.33 2.45 2.54 2.60 2.62 2.34 2.17 1.92
1.47 1.42 1.38 1.42 1.42 1.32 1.15 0.99 0.95 0.95 1.11 1.19 1.28 1.25 1.13 1.05 1.20 1.37 1.58 1.92 2.05 2.11 1.98 2.06 2.29 2.27 2.06 2.09 2.12 2.09 2.36 2.51 2.41 2.28 1.99 2.13 2.30 2.35 2.54 2.41 2.19 2.04 1.98